Time,TemperatureF,DewpointF,PressureIn,WindDirection,WindDirectionDegrees,WindSpeedMPH,WindSpeedGustMPH,Humidity,HourlyPrecipIn,Conditions,Clouds,dailyrainin,SoftwareType,DateUTC
2013-04-16 00:03:00,70.0,68.0,30.04,SSW,211,0.0,3.0,94,0.00,,,0.00,,2013-04-16 05:03:00,
2013-04-16 00:12:00,70.0,68.0,30.04,SSW,211,0.0,3.0,94,0.00,,,0.00,,2013-04-16 05:12:00,
2013-04-16 00:22:00,70.0,68.0,30.04,SSW,203,0.0,1.0,93,0.00,,,0.00,,2013-04-16 05:22:00,
2013-04-16 00:32:00,69.0,66.0,30.04,SW,235,0.0,1.0,91,0.00,,,0.00,,2013-04-16 05:32:00,
2013-04-16 00:42:00,69.0,66.0,30.04,SW,235,0.0,1.0,91,0.00,,,0.00,,2013-04-16 05:42:00,
2013-04-16 00:52:00,69.0,66.0,30.04,SW,224,0.0,2.0,91,0.00,,,0.00,,2013-04-16 05:52:00,
2013-04-16 01:02:00,69.0,66.0,30.05,SW,235,0.0,0.0,91,0.00,,,0.00,,2013-04-16 06:02:00,
2013-04-16 01:12:00,69.0,66.0,30.05,SW,235,0.0,0.0,91,0.00,,,0.00,,2013-04-16 06:12:00,
2013-04-16 01:22:00,68.0,66.0,30.04,SSW,208,0.0,0.0,92,0.00,,,0.00,,2013-04-16 06:22:00,
2013-04-16 01:32:00,68.0,66.0,30.05,SSW,208,0.0,0.0,93,0.00,,,0.00,,2013-04-16 06:32:00,
2013-04-16 01:42:00,68.0,66.0,30.05,SSW,208,0.0,0.0,93,0.00,,,0.00,,2013-04-16 06:42:00,
2013-04-16 01:52:00,68.0,66.0,30.04,SSW,205,0.0,0.0,94,0.00,,,0.00,,2013-04-16 06:52:00,
2013-04-16 02:02:00,68.0,66.0,30.04,SSE,165,0.0,0.0,94,0.00,,,0.00,,2013-04-16 07:02:00,
2013-04-16 02:12:00,68.0,66.0,30.04,SSE,165,0.0,0.0,94,0.00,,,0.00,,2013-04-16 07:12:00,
2013-04-16 02:22:00,68.0,66.0,30.03,East,80,0.0,1.0,94,0.00,,,0.00,,2013-04-16 07:22:00,
2013-04-16 02:32:00,67.0,65.0,30.03,East,81,0.0,0.0,94,0.00,,,0.00,,2013-04-16 07:32:00,
2013-04-16 02:42:00,67.0,65.0,30.03,East,81,0.0,0.0,94,0.00,,,0.00,,2013-04-16 07:42:00,
2013-04-16 02:53:00,67.0,66.0,30.03,East,81,0.0,0.0,95,0.00,,,0.00,,2013-04-16 07:53:00,
2013-04-16 03:02:00,66.0,65.0,30.03,East,82,0.0,0.0,95,0.00,,,0.00,,2013-04-16 08:02:00,
2013-04-16 03:12:00,66.0,65.0,30.03,East,82,0.0,0.0,95,0.00,,,0.00,,2013-04-16 08:12:00,
2013-04-16 03:22:00,66.0,65.0,30.03,NE,44,0.0,1.0,96,0.00,,,0.00,,2013-04-16 08:22:00,
2013-04-16 03:32:00,66.0,65.0,30.03,NE,44,0.0,0.0,96,0.00,,,0.00,,2013-04-16 08:32:00,
2013-04-16 03:42:00,66.0,65.0,30.03,NE,44,0.0,0.0,96,0.00,,,0.00,,2013-04-16 08:42:00,
2013-04-16 03:52:00,66.0,65.0,30.03,NE,44,0.0,0.0,96,0.00,,,0.00,,2013-04-16 08:52:00,
2013-04-16 04:02:00,66.0,65.0,30.04,NE,44,0.0,0.0,97,0.00,,,0.00,,2013-04-16 09:02:00,
2013-04-16 04:12:00,66.0,65.0,30.04,NE,44,0.0,0.0,97,0.00,,,0.00,,2013-04-16 09:12:00,
2013-04-16 04:22:00,66.0,65.0,30.04,NE,44,0.0,0.0,97,0.00,,,0.00,,2013-04-16 09:22:00,
2013-04-16 04:33:00,66.0,65.0,30.04,NE,44,0.0,0.0,97,0.00,,,0.00,,2013-04-16 09:33:00,
2013-04-16 04:43:00,66.0,65.0,30.04,NE,44,0.0,0.0,97,0.00,,,0.00,,2013-04-16 09:43:00,
2013-04-16 04:52:00,66.0,65.0,30.04,East,101,0.0,2.0,97,0.00,,,0.00,,2013-04-16 09:52:00,
2013-04-16 05:03:00,66.0,65.0,30.04,East,84,1.0,3.0,96,0.00,,,0.00,,2013-04-16 10:03:00,
2013-04-16 05:13:00,66.0,65.0,30.04,East,84,1.0,3.0,96,0.00,,,0.00,,2013-04-16 10:13:00,
2013-04-16 05:23:00,66.0,65.0,30.05,East,91,0.0,2.0,96,0.00,,,0.00,,2013-04-16 10:23:00,
2013-04-16 05:33:00,66.0,65.0,30.05,ENE,62,0.0,2.0,96,0.00,,,0.00,,2013-04-16 10:33:00,
2013-04-16 05:42:00,66.0,65.0,30.05,ENE,62,0.0,2.0,96,0.00,,,0.00,,2013-04-16 10:42:00,
2013-04-16 05:52:00,65.0,64.0,30.05,East,79,0.0,2.0,96,0.00,,,0.00,,2013-04-16 10:52:00,
2013-04-16 06:03:00,65.0,64.0,30.05,ENE,76,0.0,3.0,96,0.00,,,0.00,,2013-04-16 11:03:00,
2013-04-16 06:12:00,65.0,64.0,30.05,ENE,76,0.0,3.0,96,0.00,,,0.00,,2013-04-16 11:12:00,
2013-04-16 06:22:00,65.0,64.0,30.05,ENE,65,1.0,2.0,96,0.00,,,0.00,,2013-04-16 11:22:00,
2013-04-16 06:32:00,65.0,64.0,30.05,East,86,1.0,3.0,96,0.00,,,0.00,,2013-04-16 11:32:00,
2013-04-16 06:42:00,65.0,64.0,30.05,East,86,1.0,3.0,96,0.00,,,0.00,,2013-04-16 11:42:00,
2013-04-16 06:52:00,65.0,64.0,30.05,ENE,60,0.0,2.0,96,0.00,,,0.00,,2013-04-16 11:52:00,
2013-04-16 07:02:00,66.0,65.0,30.06,NE,53,1.0,4.0,96,0.00,,,0.00,,2013-04-16 12:02:00,
2013-04-16 07:12:00,66.0,65.0,30.06,NE,53,1.0,4.0,96,0.00,,,0.00,,2013-04-16 12:12:00,
2013-04-16 07:22:00,66.0,65.0,30.07,East,82,0.0,2.0,95,0.00,,,0.00,,2013-04-16 12:22:00,
2013-04-16 07:32:00,67.0,65.0,30.08,ESE,123,0.0,5.0,94,0.00,,,0.00,,2013-04-16 12:32:00,
2013-04-16 07:42:00,67.0,65.0,30.08,ESE,123,0.0,5.0,94,0.00,,,0.00,,2013-04-16 12:42:00,
2013-04-16 07:52:00,67.0,65.0,30.09,ENE,64,1.0,4.0,93,0.00,,,0.00,,2013-04-16 12:52:00,
2013-04-16 08:02:00,68.0,65.0,30.09,ENE,64,2.0,4.0,91,0.00,,,0.00,,2013-04-16 13:02:00,
2013-04-16 08:12:00,68.0,65.0,30.09,ENE,64,2.0,4.0,91,0.00,,,0.00,,2013-04-16 13:12:00,
2013-04-16 08:22:00,68.0,65.0,30.09,NE,44,2.0,5.0,90,0.00,,,0.00,,2013-04-16 13:22:00,
2013-04-16 08:32:00,69.0,65.0,30.09,NE,47,3.0,6.0,87,0.00,,,0.00,,2013-04-16 13:32:00,
2013-04-16 08:42:00,69.0,65.0,30.09,NE,47,3.0,6.0,87,0.00,,,0.00,,2013-04-16 13:42:00,
2013-04-16 08:52:00,70.0,65.0,30.09,ESE,108,1.0,7.0,85,0.00,,,0.00,,2013-04-16 13:52:00,
2013-04-16 09:02:00,71.0,65.0,30.09,NNW,347,3.0,7.0,82,0.00,,,0.00,,2013-04-16 14:02:00,
2013-04-16 09:12:00,71.0,65.0,30.09,NNW,347,3.0,7.0,82,0.00,,,0.00,,2013-04-16 14:12:00,
2013-04-16 09:22:00,72.0,66.0,30.09,East,88,3.0,8.0,81,0.00,,,0.00,,2013-04-16 14:22:00,
2013-04-16 09:32:00,73.0,66.0,30.09,ENE,58,2.0,6.0,80,0.00,,,0.00,,2013-04-16 14:32:00,
2013-04-16 09:42:00,73.0,66.0,30.09,ENE,58,2.0,6.0,80,0.00,,,0.00,,2013-04-16 14:42:00,
2013-04-16 09:52:00,74.0,66.0,30.10,SE,134,2.0,6.0,76,0.00,,,0.00,,2013-04-16 14:52:00,
2013-04-16 10:02:00,75.0,67.0,30.11,East,88,2.0,8.0,77,0.00,,,0.00,,2013-04-16 15:02:00,
2013-04-16 10:12:00,75.0,67.0,30.11,East,88,2.0,8.0,77,0.00,,,0.00,,2013-04-16 15:12:00,
2013-04-16 10:22:00,76.0,67.0,30.11,NE,53,2.0,6.0,75,0.00,,,0.00,,2013-04-16 15:22:00,
2013-04-16 10:33:00,76.0,67.0,30.11,ESE,122,2.0,9.0,75,0.00,,,0.00,,2013-04-16 15:33:00,
2013-04-16 10:43:00,76.0,67.0,30.11,ESE,122,2.0,9.0,75,0.00,,,0.00,,2013-04-16 15:43:00,
2013-04-16 10:53:00,78.0,68.0,30.11,ENE,58,3.0,6.0,72,0.00,,,0.00,,2013-04-16 15:53:00,
2013-04-16 11:03:00,78.0,69.0,30.12,SE,132,1.0,9.0,73,0.00,,,0.00,,2013-04-16 16:03:00,
2013-04-16 11:13:00,78.0,69.0,30.12,SE,132,1.0,9.0,73,0.00,,,0.00,,2013-04-16 16:13:00,
2013-04-16 11:23:00,79.0,68.0,30.12,ENE,75,1.0,5.0,69,0.00,,,0.00,,2013-04-16 16:23:00,
2013-04-16 11:33:00,80.0,69.0,30.11,SE,134,1.0,7.0,70,0.00,,,0.00,,2013-04-16 16:33:00,
2013-04-16 11:42:00,80.0,69.0,30.11,SE,134,1.0,7.0,70,0.00,,,0.00,,2013-04-16 16:42:00,
2013-04-16 11:52:00,80.0,68.0,30.11,ENE,67,3.0,8.0,68,0.00,,,0.00,,2013-04-16 16:52:00,
2013-04-16 12:02:00,81.0,69.0,30.11,ENE,69,2.0,6.0,66,0.00,,,0.00,,2013-04-16 17:02:00,
2013-04-16 12:12:00,81.0,69.0,30.11,ENE,69,2.0,6.0,66,0.00,,,0.00,,2013-04-16 17:12:00,
2013-04-16 12:22:00,82.0,69.0,30.11,ESE,122,2.0,5.0,65,0.00,,,0.00,,2013-04-16 17:22:00,
2013-04-16 12:33:00,82.0,69.0,30.10,NE,36,2.0,6.0,64,0.00,,,0.00,,2013-04-16 17:33:00,
2013-04-16 12:43:00,82.0,69.0,30.10,NE,36,2.0,6.0,64,0.00,,,0.00,,2013-04-16 17:43:00,
2013-04-16 12:53:00,82.0,69.0,30.10,ESE,110,3.0,8.0,64,0.00,,,0.00,,2013-04-16 17:53:00,
2013-04-16 13:02:00,83.0,69.0,30.10,NE,40,4.0,7.0,62,0.00,,,0.00,,2013-04-16 18:02:00,
2013-04-16 13:12:00,83.0,69.0,30.10,NE,40,4.0,7.0,62,0.00,,,0.00,,2013-04-16 18:12:00,
2013-04-16 13:22:00,83.0,69.0,30.10,SE,127,4.0,9.0,63,0.00,,,0.00,,2013-04-16 18:22:00,
2013-04-16 13:32:00,84.0,69.0,30.09,SE,131,3.0,7.0,60,0.00,,,0.00,,2013-04-16 18:32:00,
2013-04-16 13:42:00,84.0,69.0,30.09,SE,131,3.0,7.0,60,0.00,,,0.00,,2013-04-16 18:42:00,
2013-04-16 13:52:00,84.0,68.0,30.09,SE,131,3.0,8.0,59,0.00,,,0.00,,2013-04-16 18:52:00,
2013-04-16 14:02:00,85.0,69.0,30.08,SSE,155,2.0,7.0,58,0.00,,,0.00,,2013-04-16 19:02:00,
2013-04-16 14:12:00,85.0,69.0,30.08,SSE,155,2.0,7.0,58,0.00,,,0.00,,2013-04-16 19:12:00,
2013-04-16 14:22:00,85.0,69.0,30.08,ENE,69,2.0,8.0,58,0.00,,,0.00,,2013-04-16 19:22:00,
2013-04-16 14:32:00,85.0,69.0,30.08,ENE,58,2.0,9.0,58,0.00,,,0.00,,2013-04-16 19:32:00,
2013-04-16 14:42:00,85.0,69.0,30.08,ENE,58,2.0,9.0,58,0.00,,,0.00,,2013-04-16 19:42:00,
2013-04-16 14:52:00,86.0,70.0,30.08,SE,133,2.0,7.0,59,0.00,,,0.00,,2013-04-16 19:52:00,
2013-04-16 15:02:00,87.0,68.0,30.07,SSW,213,1.0,7.0,53,0.00,,,0.00,,2013-04-16 20:02:00,
2013-04-16 15:12:00,87.0,68.0,30.07,SSW,213,1.0,7.0,53,0.00,,,0.00,,2013-04-16 20:12:00,
2013-04-16 15:22:00,87.0,68.0,30.07,ESE,110,1.0,5.0,53,0.00,,,0.00,,2013-04-16 20:22:00,
2013-04-16 15:32:00,86.0,69.0,30.07,SE,135,1.0,4.0,57,0.00,,,0.00,,2013-04-16 20:32:00,
2013-04-16 15:42:00,86.0,69.0,30.07,SE,135,1.0,4.0,57,0.00,,,0.00,,2013-04-16 20:42:00,
2013-04-16 15:52:00,84.0,68.0,30.07,East,89,0.0,4.0,59,0.00,,,0.00,,2013-04-16 20:52:00,
2013-04-16 16:02:00,85.0,69.0,30.06,SSE,168,2.0,6.0,59,0.00,,,0.00,,2013-04-16 21:02:00,
2013-04-16 16:12:00,85.0,69.0,30.06,SSE,168,2.0,6.0,59,0.00,,,0.00,,2013-04-16 21:12:00,
2013-04-16 16:22:00,85.0,69.0,30.06,ENE,70,0.0,6.0,59,0.00,,,0.00,,2013-04-16 21:22:00,
2013-04-16 16:32:00,85.0,69.0,30.06,East,81,3.0,11.0,58,0.00,,,0.00,,2013-04-16 21:32:00,
2013-04-16 16:43:00,85.0,69.0,30.06,East,81,3.0,11.0,58,0.00,,,0.00,,2013-04-16 21:43:00,
2013-04-16 16:53:00,84.0,67.0,30.06,South,173,2.0,7.0,57,0.00,,,0.00,,2013-04-16 21:53:00,
2013-04-16 17:03:00,83.0,67.0,30.06,ENE,69,0.0,4.0,59,0.00,,,0.00,,2013-04-16 22:03:00,
2013-04-16 17:13:00,83.0,67.0,30.06,ENE,69,0.0,4.0,59,0.00,,,0.00,,2013-04-16 22:13:00,
2013-04-16 17:22:00,85.0,68.0,30.06,ESE,114,1.0,7.0,56,0.00,,,0.00,,2013-04-16 22:22:00,
2013-04-16 17:33:00,85.0,67.0,30.06,SE,125,0.0,4.0,55,0.00,,,0.00,,2013-04-16 22:33:00,
2013-04-16 17:43:00,85.0,67.0,30.06,SE,125,0.0,4.0,55,0.00,,,0.00,,2013-04-16 22:43:00,
2013-04-16 17:52:00,85.0,69.0,30.06,SE,135,1.0,4.0,58,0.00,,,0.00,,2013-04-16 22:52:00,
2013-04-16 18:02:00,83.0,67.0,30.06,SE,139,0.0,2.0,59,0.00,,,0.00,,2013-04-16 23:02:00,
2013-04-16 18:12:00,83.0,67.0,30.06,SE,139,0.0,2.0,59,0.00,,,0.00,,2013-04-16 23:12:00,
2013-04-16 18:22:00,82.0,68.0,30.06,ENE,77,0.0,1.0,63,0.00,,,0.00,,2013-04-16 23:22:00,
2013-04-16 18:32:00,80.0,68.0,30.07,NE,37,0.0,1.0,68,0.00,,,0.00,,2013-04-16 23:32:00,
2013-04-16 18:43:00,80.0,68.0,30.07,NE,37,0.0,1.0,68,0.00,,,0.00,,2013-04-16 23:43:00,
2013-04-16 18:52:00,79.0,69.0,30.06,NE,37,0.0,0.0,71,0.00,,,0.00,,2013-04-16 23:52:00,
2013-04-16 19:02:00,79.0,68.0,30.07,ENE,58,0.0,1.0,70,0.00,,,0.00,,2013-04-17 00:02:00,
2013-04-16 19:12:00,79.0,68.0,30.07,ENE,58,0.0,1.0,70,0.00,,,0.00,,2013-04-17 00:12:00,
2013-04-16 19:22:00,79.0,69.0,30.07,SE,133,0.0,1.0,71,0.00,,,0.00,,2013-04-17 00:22:00,
2013-04-16 19:32:00,79.0,68.0,30.07,SE,136,0.0,1.0,70,0.00,,,0.00,,2013-04-17 00:32:00,
2013-04-16 19:42:00,79.0,68.0,30.07,SE,136,0.0,1.0,70,0.00,,,0.00,,2013-04-17 00:42:00,
2013-04-16 19:52:00,78.0,69.0,30.07,SW,218,0.0,0.0,73,0.00,,,0.00,,2013-04-17 00:52:00,
2013-04-16 20:02:00,76.0,68.0,30.07,SW,218,0.0,0.0,77,0.00,,,0.00,,2013-04-17 01:02:00,
2013-04-16 20:12:00,76.0,68.0,30.07,SW,218,0.0,0.0,77,0.00,,,0.00,,2013-04-17 01:12:00,
2013-04-16 20:22:00,75.0,68.0,30.08,SW,218,0.0,0.0,79,0.00,,,0.00,,2013-04-17 01:22:00,
2013-04-16 20:32:00,74.0,68.0,30.08,SW,218,0.0,0.0,81,0.00,,,0.00,,2013-04-17 01:32:00,
2013-04-16 20:42:00,74.0,68.0,30.08,SW,218,0.0,0.0,81,0.00,,,0.00,,2013-04-17 01:42:00,
2013-04-16 20:52:00,73.0,68.0,30.09,SW,218,0.0,0.0,84,0.00,,,0.00,,2013-04-17 01:52:00,
2013-04-16 21:02:00,72.0,68.0,30.09,SW,218,0.0,0.0,86,0.00,,,0.00,,2013-04-17 02:02:00,
2013-04-16 21:12:00,72.0,68.0,30.09,SW,218,0.0,0.0,86,0.00,,,0.00,,2013-04-17 02:12:00,
2013-04-16 21:22:00,72.0,68.0,30.09,SW,218,0.0,0.0,87,0.00,,,0.00,,2013-04-17 02:22:00,
2013-04-16 21:32:00,71.0,67.0,30.10,SW,218,0.0,0.0,88,0.00,,,0.00,,2013-04-17 02:32:00,
2013-04-16 21:42:00,71.0,67.0,30.10,SW,218,0.0,0.0,88,0.00,,,0.00,,2013-04-17 02:42:00,
2013-04-16 21:52:00,71.0,68.0,30.10,SW,218,0.0,0.0,89,0.00,,,0.00,,2013-04-17 02:52:00,
2013-04-16 22:02:00,71.0,68.0,30.09,SW,219,0.0,0.0,90,0.00,,,0.00,,2013-04-17 03:02:00,
2013-04-16 22:12:00,71.0,68.0,30.09,SW,219,0.0,0.0,90,0.00,,,0.00,,2013-04-17 03:12:00,
2013-04-16 22:22:00,71.0,68.0,30.09,SW,218,0.0,0.0,91,0.00,,,0.00,,2013-04-17 03:22:00,
2013-04-16 22:33:00,70.0,67.0,30.09,SW,218,0.0,0.0,91,0.00,,,0.00,,2013-04-17 03:33:00,
2013-04-16 22:42:00,70.0,67.0,30.09,SW,218,0.0,0.0,91,0.00,,,0.00,,2013-04-17 03:42:00,
2013-04-16 22:53:00,70.0,68.0,30.10,SW,218,0.0,0.0,93,0.00,,,0.00,,2013-04-17 03:53:00,
2013-04-16 23:03:00,69.0,67.0,30.10,SW,218,0.0,0.0,93,0.00,,,0.00,,2013-04-17 04:03:00,
2013-04-16 23:13:00,69.0,67.0,30.10,SW,218,0.0,0.0,93,0.00,,,0.00,,2013-04-17 04:13:00,
2013-04-16 23:23:00,69.0,67.0,30.10,SW,219,0.0,0.0,94,0.00,,,0.00,,2013-04-17 04:23:00,
2013-04-16 23:33:00,69.0,67.0,30.09,SW,218,0.0,0.0,94,0.00,,,0.00,,2013-04-17 04:33:00,
2013-04-16 23:42:00,69.0,67.0,30.09,SW,218,0.0,0.0,94,0.00,,,0.00,,2013-04-17 04:42:00,
2013-04-16 23:53:00,69.0,67.0,30.10,SW,219,0.0,0.0,94,0.00,,,0.00,,2013-04-17 04:53:00,